Overview Statistics Trail Chart Weather Telemetry Raw packets
 

This is the latest recevied weather packets stored in our database for station/object KB4RFE. If no packets are shown the sender has not sent any weather packets the latest 10 day(s).

<< 35 36 37 38 39 40 41 >>
Time Temp. Humidity Pressure Rain* Wind** Luminosity Snow
1788387273 30° C 74% 1020 hPa 0 mm - 57 W/m² -
1788386970 30° C 74% 1019.9 hPa 0 mm - 60 W/m² -
1788386669 30° C 72% 1020 hPa 0 mm - 61 W/m² -
1788386364 30° C 74% 1019.9 hPa 0 mm - 63 W/m² -
1788386060 30.56° C 75% 1020 hPa 0 mm - 65 W/m² -
1788385756 30.56° C 73% 1020 hPa 0 mm - 66 W/m² -
1788385455 30.56° C 72% 1019.9 hPa 0 mm - 68 W/m² -
1788385155 30.56° C 71% 1020 hPa 0 mm - 91 W/m² -
1788384851 30.56° C 70% 1019.9 hPa 0 mm - 71 W/m² -
1788384550 31.11° C 68% 1020 hPa 0 mm - 74 W/m² -
1788384246 31.11° C 67% 1020 hPa 0 mm - 75 W/m² -
1788383942 31.11° C 66% 1019.9 hPa 0 mm - 81 W/m² -
1788383638 31.11° C 66% 1020.2 hPa 0 mm - 85 W/m² -
1788383333 31.11° C 70% 1020.1 hPa 0 mm - 92 W/m² -
1788383032 31.67° C 66% 1020.1 hPa 0 mm - 224 W/m² -
1788382731 31.67° C 70% 1020.4 hPa 0 mm - 418 W/m² -
1788382425 31.67° C 65% 1020.2 hPa 0 mm - 450 W/m² -
1788382122 31.67° C 65% 1020.2 hPa 0 mm - 468 W/m² -
1788381815 32.22° C 62% 1020 hPa 0 mm - 488 W/m² -
1788381511 32.22° C 62% 1019.9 hPa 0 mm - 503 W/m² -
1788381206 32.22° C 63% 1020 hPa 0 mm - 521 W/m² -
1788380906 32.22° C 62% 1020.2 hPa 0 mm - 538 W/m² -
1788380602 32.78° C 63% 1020 hPa 0 mm - 555 W/m² -
1788380298 32.78° C 61% 1020.1 hPa 0 mm - 571 W/m² -
1788379998 32.78° C 60% 1020.1 hPa 0 mm - 587 W/m² -

* Rain latest hour (hover to see other rain measurements)
** Current wind speed in m/s (hover to see current wind gust speed)